www.pogodaiklimat.ru

АРХИВ ПОГОДЫ в Paris Orly Airport

Время (UTC), дата Ветер
(напр.,м/с)
 
Видим.   Явления Облачность Т
(С)
Тd
(С)
f
(%)
Тe
(С)
Тes
(С)
Комфортность P
(гПа)
Po
(гПа)
Тmin
(С)
Tmax
(С)
R
(мм)
S
(см)
06 16.01 СВ 2 11 км {морось} 10/10 300 м
[]
+1.7 +0.2 90 -2 -2 по сезону 1025.4 1014.0 +0.3 +1.7 2
07 16.01 СВ 2 6000 м 10/9 240 м
[]
+1.2 -0.1 91 -2 -2 тепло 1025.9 1014.5
08 16.01 СВ 1 6000 м 10/8 210 м
[]
+0.8 -0.5 91 -1 -1 по сезону 1026.4 1015.0
09 16.01 С 1 10 км 9/1 630 м
[Sc Ac trans]
+1.4 -0.4 88 -1 -0 по сезону 1026.9 1015.5
10 16.01 СВ 2 7000 м 9/6 330 м
[Sc Ac trans]
+1.7 -0.2 87 -2 -1 по сезону 1027.3 1015.9
11 16.01 В 1 15 км 10/9 300 м
[St]
+2.0 -0.4 84 0 0 по сезону 1027.4 1016.0
12 16.01 В 1 11 км 10/9 360 м
[St Ac trans]
+2.2 -0.7 81 +1 +1 по сезону 1027.4 1016.0
13 16.01 СВ 1 12 км 9/6 450 м
[Cu Sc Ci fib]
+2.8 -0.7 78 +1 +2 тепло 1027.3 1016.0
14 16.01 СВ 2 15 км 9/9 450 м
[Cu Sc]
+2.7 -0.9 77 0 +1 по сезону 1027.2 1015.9
15 16.01 СВ 2 17 км 10/9 540 м
[Cu Sc]
+2.8 -1.0 76 +1 +1 по сезону 1027.4 1016.1
16 16.01 СВ 2 17 км 9/9 570 м
[Cu Sc]
+2.5 -1.1 77 0 0 тепло 1027.7 1016.3
17 16.01 СВ 3
{5}
17 км 9/9 480 м
[Cu Sc]
+1.8 -1.1 81 -2 -2 по сезону 1028.0 1016.6
18 16.01 СВ 2 8000 м 9/9 300 м
[Cu Sc]
+1.9 -0.7 83 -1 -1 по сезону 1028.5 1017.1 +0.7 +2.8
19 16.01 С 2 8000 м 10/10 540 м
[]
+1.6 -1.1 82 -2 -2 тепло 1029.0 1017.6
20 16.01 СВ 2 13 км 3/3 450 м
[Cu Sc]
+1.3 -1.9 79 -2 -2 по сезону 1029.3 1017.9
21 16.01 СВ 2 10 км 1/1 600 м
[Sc]
+0.3 -2.3 83 -3 -3 прохладно 1030.3 1018.8
22 16.01 СВ 2 10 км 3/3 330 м
[Sc]
-0.2 -2.4 85 -3 -3 тепло 1030.8 1019.3
23 16.01 СВ 2 6000 м 9/9 210 м
[St]
-0.9 -2.5 89 -4 -4 по сезону 1031.2 1019.7
00 17.01 СВ 2 5000 м 1/1 210 м
[St]
-1.8 -3.7 87 -5 -5 прохладно 1031.6 1020.0
01 17.01 СВ 2 5000 м 1/1 240 м
[St]
-2.5 -3.9 90 -6 -6 по сезону 1031.9 1020.3
02 17.01 СВ 2 3500 м 1/1 240 м
[St]
-2.9 -4.3 90 -6 -6 по сезону 1032.1 1020.5
03 17.01 С 2 5000 м 1/1 210 м
[St]
-3.0 -4.4 90 -6 -6 холодно 1032.3 1020.7
04 17.01 С 2 5000 м 1/1 210 м
[St]
-3.4 -5.0 89 -7 -7 по сезону 1032.8 1021.1
05 17.01 СВ 3
{5}
5000 м 1/1 210 м
[St]
-4.0 -5.4 90 -10 -10 прохладно 1033.1 1021.4
06 17.01 С 2 5000 м 1/1 200 м
[St]
-2.8 -4.5 88 -6 -6 холодно 1033.6 1022.0 -4.2 +2.0
07 17.01 СВ 2 5000 м н/о -3.5 -5.5 86 -7 -7 по сезону 1034.0 1022.3
08 17.01 С 2 6000 м 1/1 240 м
[St]
-3.7 -5.4 88 -7 -7 прохладно 1034.7 1023.0
09 17.01 СВ 2 9000 м 1/1 400 м
[St]
-2.1 -4.8 82 -6 -5 холодно 1035.1 1023.5
10 17.01 СВ 2 6000 м 1/1 420 м
[St Ac trans]
-1.4 -5.1 76 -5 -4 по сезону 1035.2 1023.6
11 17.01 СВ 3 6000 м ясно -1.0 -5.2 73 -5 -3 прохладно 1035.4 1023.8
12 17.01 С 3 5000 м н/о -0.7 -5.3 71 -5 -5 холодно 1035.1 1023.5
13 17.01 СВ 3 5000 м 1/1 540 м
[Cu hum]
-0.2 -4.6 72 -5 -3 по сезону 1035.0 1023.4
14 17.01 СВ 3 6000 м 1/1 570 м
[Cu hum]
-0.3 -5.3 69 -4 -3 по сезону 1034.4 1022.8
15 17.01 СВ 3 8000 м 1/1 600 м
[Cu hum]
-0.8 -5.8 69 -5 -4 холодно 1034.6 1023.0
16 17.01 СВ 3 7000 м 1/1 540 м
[Cu hum]
-1.7 -5.6 75 -6 -6 по сезону 1034.9 1023.3
17 17.01 СВ 3 7000 м 5/5 570 м
[Sc]
-2.3 -5.8 77 -7 -7 прохладно 1035.2 1023.6
18 17.01 СВ 3 9000 м 6/6 300 м
[Sc]
-1.8 -5.6 75 -6 -6 холодно 1035.5 1023.9 -4.1 +0.1
19 17.01 СВ 3 7000 м 6/6 540 м
[Sc]
-2.6 -5.9 78 -7 -7 по сезону 1035.8 1024.1
20 17.01 СВ 2 9000 м 1/1 600 м
[Sc]
-2.5 -6.0 77 -6 -6 по сезону 1035.7 1024.0
21 17.01 СВ 3 13 км ясно -2.9 -6.4 77 -7 -7 холодно 1035.9 1024.2
22 17.01 СВ 3 15 км ясно -2.8 -6.6 75 -8 -8 по сезону 1035.7 1024.0
23 17.01 СВ 3 18 км ясно -3.3 -6.9 76 -8 -8 прохладно 1035.7 1024.0
00 18.01 СВ 3 17 км ясно -3.2 -7.0 75 -8 -8 очень
холодно
1035.6 1023.9
01 18.01 СВ 3 16 км ясно -3.6 -7.2 76 -9 -9 по сезону 1035.5 1023.8
02 18.01 СВ 3 15 км ясно -3.9 -7.3 77 -9 -9 прохладно 1035.5 1023.8
03 18.01 СВ 3 14 км ясно -3.7 -7.3 76 -8 -8 холодно 1035.2 1023.5
04 18.01 СВ 3 14 км н/о -4.1 -7.5 77 -9 -9 по сезону 1035.0 1023.3
05 18.01 СВ 3 14 км н/о -4.0 -7.6 76 -9 -9 прохладно 1034.8 1023.1
06 18.01 СВ 3 12 км ясно -4.4 -7.8 77 -9 -9 очень
холодно
1035.0 1023.3 -4.4 -1.9
07 18.01 СВ 3 12 км ясно -4.5 -7.9 77 -9 -9 по сезону 1035.0 1023.3
08 18.01 СВ 3 12 км ясно -4.5 -7.9 77 -10 -10 холодно 1035.5 1023.8
09 18.01 СВ 3 9000 м н/о -3.5 -7.6 73 -9 -9 очень
холодно
1035.6 1023.9
10 18.01 СВ 3 15 км ясно -2.6 -7.3 70 -8 -6 по сезону 1035.7 1024.0
11 18.01 СВ 4 15 км ясно -1.6 -7.5 64 -7 -5 холодно 1035.1 1023.5
12 18.01 СВ 3 15 км ясно -0.6 -7.4 60 -5 -3 холодно 1034.5 1022.9
13 18.01 СВ 3 15 км ясно +0.1 -7.2 58 -4 -1 по сезону 1034.1 1022.6

 

Местоположение метеостанции Paris Orly Airport (Франция): широта 48.72 долгота 2.38 высота над уровнем моря 90 м.

В архиве по умолчанию представлена погода в Paris Orly Airport за последнюю неделю. Архивные данные за месяц целиком и за предыдущие месяцы, начиная с января 2011 года, Вы можете получить, выбрав интересующий диапазон дат из раскрывающегося списка и нажав кнопку "Ввод!".

Внимание! Время в таблицах - всемирное. Для получения местного времени необходимо прибавить поправку, которая в Paris Orly Airport равна 1 ч.

Ветер - указаны скорость ветра в м/с - средняя за 10 мин, порывы в срок и между сроками (в фигурных скобках) и направление, откуда дует ветер: С - северный, СВ - северо-восточный, В - восточный, ЮВ - юго-восточный, Ю - южный, ЮЗ - юго-западный, З - западный, СЗ - северо-западный.
Видимость - горизонтальная дальность видимости в метрах или километрах. При видимости от 1 до 10 км при отсутствии осадков обычно наблюдается дымка, при ухудшении видимости до 1 км и менее - туман. В сухую погоду видимость может ухудшаться дымом, пылью или мглою.
Явления - указаны атмосферные явления, наблюдавшиеся в срок или в последний час перед сроком; фигурными скобками обозначены явления, наблюдавшиеся между сроками (за 1-3 часа до срока); квадратными скобками обозначены град или гололедные отложения с указанием их диаметра в мм.
Облачность - указаны через наклонную черту общая и нижняя облачность в баллах и высота нижней границы облаков в метрах; квадратными скобками обозначены формы облаков: Ci - перистые, Cs - перисто-слоистые, Cc - перисто-кучевые, Ac - высококучевые, As - высокослоистые, Sc - слоисто-кучевые, Ns - слоисто-дождевые, Cu - кучевые, Cb - кучево-дождевые. Подробнее классификацию облаков см. в Атласе облаков (PDF).
T - Температура воздуха - температура, измеренная на высоте 2 м над землей.
Td - Температура точки росы - температура, при понижении до которой содержащийся в воздухе водяной пар достигнет насыщения.
f - Относительная влажность воздуха - влажноcть воздуха, измеренная на высоте 2 м над землей.
Te - Эффективная температура - температура, которую ощущает одетый по сезону человек в тени. Характеристика душности погоды. При расчете учитывается влияние влажности воздуха и скорости ветра на теплоощущения человека.
Tes - Эффективная температура на солнце - температура, которую ощущает человек, с поправкой на солнечный нагрев. Характеристика знойности погоды. Зависит от высоты солнца над горизонтом, облачности и скорости ветра. Ночью, в пасмурную погоду, а также при ветре 12 м/с и более поправка равна нулю.
P - Атмосферное давление - приведенное к уровню моря атмосферное давление.
Po - Атмосферное давление - измеренное на уровне метеостанции атмосферное давление.
Tmin - Минимальная температура - минимум температуры воздуха на высоте 2 м над землей.
Tmax - Максимальная температура - максимум температуры воздуха на высоте 2 м над землей.
R - Количество осадков - Количество выпавших осадков, мм. При наведении курсора мыши на число - период времени, за который выпало указанное количество осадков.
S - Снежный покров - Высота снежного покрова, см. При наведении курсора мыши на число - состояние снежного покрова и степень покрытия местности в баллах.